| time (UTC) | temp C | wind direction | speed KPH | gust KPH | rain 1hr cm | rain 24hr cm | rain mn cm | humidity % | barometer mb |
| 20260510162502 | 21 | 241 | 12.9 | 22.5 | 0.00 | 0.00 | 0.00 | 58 | 1018.8 |
| 20260510162003 | 20 | 260 | 12.9 | 33.8 | 0.00 | 0.00 | 0.00 | 59 | 1018.7 |
| 20260510161502 | 20 | 266 | 8.0 | 33.8 | 0.00 | 0.00 | 0.00 | 54 | 1018.8 |
| 20260510161002 | 20 | 344 | 11.3 | 33.8 | 0.00 | 0.00 | 0.00 | 54 | 1018.9 |
| 20260510160502 | 20 | 303 | 14.5 | 32.2 | 0.00 | 0.00 | 0.00 | 56 | 1018.9 |
| 20260510155502 | 20 | 335 | 17.7 | 29.0 | 0.00 | 0.00 | 0.00 | 57 | 1019.0 |
| 20260510154503 | 20 | 298 | 16.1 | 24.1 | 0.00 | 0.00 | 0.00 | 59 | 1019.0 |
| 20260510154003 | 20 | 315 | 1.6 | 25.7 | 0.00 | 0.00 | 0.00 | 59 | 1019.0 |
| 20260510153502 | 20 | 268 | 16.1 | 25.7 | 0.00 | 0.00 | 0.00 | 61 | 1019.0 |
| 20260510153003 | 20 | 324 | 8.0 | 27.4 | 0.00 | 0.00 | 0.00 | 62 | 1018.9 |
| 20260510152502 | 19 | 300 | 11.3 | 33.8 | 0.00 | 0.00 | 0.00 | 60 | 1018.9 |
| 20260510152003 | 20 | 279 | 17.7 | 33.8 | 0.00 | 0.00 | 0.00 | 59 | 1019.0 |
| 20260510151503 | 19 | 307 | 9.7 | 33.8 | 0.00 | 0.00 | 0.00 | 59 | 1018.9 |
| 20260510151003 | 19 | 252 | 16.1 | 29.0 | 0.00 | 0.00 | 0.00 | 59 | 1019.0 |
| 20260510150502 | 19 | 243 | 16.1 | 29.0 | 0.00 | 0.00 | 0.00 | 62 | 1018.8 |
| 20260510150003 | 19 | 240 | 12.9 | 35.4 | 0.00 | 0.00 | 0.00 | 61 | 1019.0 |
| 20260510145002 | 19 | 250 | 19.3 | 29.0 | 0.00 | 0.00 | 0.00 | 59 | 1018.8 |
| 20260510144503 | 19 | 240 | 12.9 | 25.7 | 0.00 | 0.00 | 0.00 | 61 | 1018.8 |
| 20260510144003 | 19 | 262 | 14.5 | 20.9 | 0.00 | 0.00 | 0.00 | 62 | 1018.9 |
| 20260510143502 | 19 | 348 | 12.9 | 24.1 | 0.00 | 0.00 | 0.00 | 61 | 1018.9 |
| 20260510143003 | 19 | 264 | 14.5 | 24.1 | 0.00 | 0.00 | 0.00 | 64 | 1018.8 |
| 20260510142503 | 18 | 276 | 11.3 | 22.5 | 0.00 | 0.00 | 0.00 | 62 | 1018.7 |
| 20260510142003 | 18 | 288 | 11.3 | 32.2 | 0.00 | 0.00 | 0.00 | 62 | 1018.7 |
| 20260510141503 | 18 | 236 | 14.5 | 35.4 | 0.00 | 0.00 | 0.00 | 60 | 1018.6 |
| 20260510141003 | 18 | 324 | 11.3 | 35.4 | 0.00 | 0.00 | 0.00 | 61 | 1018.7 |
| 20260510140503 | 18 | 256 | 8.0 | 22.5 | 0.00 | 0.00 | 0.00 | 64 | 1018.6 |
| 20260510140004 | 18 | 205 | 8.0 | 20.9 | 0.00 | 0.00 | 0.00 | 63 | 1018.8 |
| 20260510135503 | 18 | 276 | 8.0 | 22.5 | 0.00 | 0.00 | 0.00 | 65 | 1018.9 |
| 20260510135003 | 18 | 265 | 11.3 | 27.4 | 0.00 | 0.00 | 0.00 | 65 | 1018.9 |
| 20260510134504 | 18 | 332 | 11.3 | 27.4 | 0.00 | 0.00 | 0.00 | 65 | 1018.8 |
| 20260510134003 | 17 | 273 | 17.7 | 25.7 | 0.00 | 0.00 | 0.00 | 65 | 1018.7 |
| 20260510133503 | 17 | 317 | 9.7 | 33.8 | 0.00 | 0.00 | 0.00 | 64 | 1018.7 |
| 20260510133003 | 17 | 279 | 17.7 | 33.8 | 0.00 | 0.00 | 0.00 | 65 | 1018.6 |
| 20260510132502 | 17 | 302 | 17.7 | 32.2 | 0.00 | 0.00 | 0.00 | 67 | 1018.7 |
| 20260510132003 | 17 | 314 | 9.7 | 24.1 | 0.00 | 0.00 | 0.00 | 66 | 1018.7 |
| 20260510131508 | 17 | 326 | 9.7 | 27.4 | 0.00 | 0.00 | 0.00 | 66 | 1018.6 |
| 20260510131002 | 17 | 335 | 11.3 | 27.4 | 0.00 | 0.00 | 0.00 | 67 | 1018.6 |
| 20260510130503 | 17 | 240 | 9.7 | 16.1 | 0.00 | 0.00 | 0.00 | 67 | 1018.6 |
| 20260510130003 | 17 | 323 | 8.0 | 19.3 | 0.00 | 0.00 | 0.00 | 67 | 1018.5 |
| 20260510125502 | 17 | 276 | 8.0 | 19.3 | 0.00 | 0.00 | 0.00 | 69 | 1018.5 |
| 20260510125004 | 16 | 228 | 6.4 | 16.1 | 0.00 | 0.00 | 0.00 | 70 | 1018.5 |
| 20260510124503 | 16 | 226 | 6.4 | 16.1 | 0.00 | 0.00 | 0.00 | 71 | 1018.5 |
| 20260510123502 | 16 | 221 | 6.4 | 16.1 | 0.00 | 0.00 | 0.00 | 71 | 1018.3 |
| 20260510123003 | 16 | 263 | 4.8 | 19.3 | 0.00 | 0.00 | 0.00 | 71 | 1018.2 |
| 20260510122503 | 15 | 291 | 4.8 | 19.3 | 0.00 | 0.00 | 0.00 | 75 | 1018.2 |
| 20260510122003 | 15 | 253 | 4.8 | 16.1 | 0.00 | 0.00 | 0.00 | 76 | 1018.1 |
| 20260510121504 | 15 | 334 | 11.3 | 16.1 | 0.00 | 0.00 | 0.00 | 76 | 1018.1 |
| 20260510121002 | 14 | 340 | 4.8 | 11.3 | 0.00 | 0.00 | 0.00 | 80 | 1018.1 |
| 20260510120503 | 13 | 284 | 3.2 | 9.7 | 0.00 | 0.00 | 0.00 | 81 | 1018.2 |
| 20260510120003 | 13 | 270 | 3.2 | 14.5 | 0.00 | 0.00 | 0.00 | 82 | 1018.1 |
| 20260510115502 | 13 | 249 | 6.4 | 14.5 | 0.00 | 0.00 | 0.00 | 83 | 1018.1 |
| 20260510115002 | 13 | 258 | 6.4 | 14.5 | 0.00 | 0.00 | 0.00 | 82 | 1018.1 |
| 20260510114504 | 12 | 264 | 6.4 | 12.9 | 0.00 | 0.00 | 0.00 | 84 | 1018.0 |
| 20260510114002 | 12 | 248 | 6.4 | 12.9 | 0.00 | 0.00 | 0.00 | 85 | 1017.8 |
| 20260510113503 | 11 | 259 | 8.0 | 12.9 | 0.00 | 0.00 | 0.00 | 87 | 1017.9 |
| 20260510113004 | 11 | 228 | 3.2 | 12.9 | 0.00 | 0.00 | 0.00 | 88 | 1017.8 |
| 20260510112502 | 11 | 257 | 1.6 | 4.8 | 0.00 | 0.00 | 0.00 | 89 | 1017.8 |
| 20260510112002 | 10 | 258 | 3.2 | 4.8 | 0.00 | 0.00 | 0.00 | 89 | 1017.7 |
| 20260510111503 | 10 | 237 | 3.2 | 4.8 | 0.00 | 0.00 | 0.00 | 91 | 1017.6 |
| 20260510111003 | 10 | 256 | 3.2 | 8.0 | 0.00 | 0.00 | 0.00 | 90 | 1017.5 |
| 20260510110004 | 10 | 262 | 3.2 | 8.0 | 0.00 | 0.00 | 0.00 | 89 | 1017.3 |
| 20260510105503 | 10 | 202 | 3.2 | 11.3 | 0.00 | 0.00 | 0.00 | 89 | 1017.2 |
| 20260510105002 | 10 | 174 | 3.2 | 11.3 | 0.00 | 0.00 | 0.00 | 90 | 1017.0 |
| 20260510104503 | 9 | 101 | 3.2 | 4.8 | 0.00 | 0.00 | 0.00 | 88 | 1017.0 |
| 20260510104002 | 10 | 225 | 1.6 | 4.8 | 0.00 | 0.00 | 0.00 | 88 | 1017.0 |
| 20260510103503 | 10 | 215 | 1.6 | 4.8 | 0.00 | 0.00 | 0.00 | 88 | 1017.0 |
| 20260510102503 | 10 | 184 | 1.6 | 4.8 | 0.00 | 0.00 | 0.00 | 87 | 1016.8 |
| 20260510102002 | 10 | 323 | 1.6 | 4.8 | 0.00 | 0.00 | 0.00 | 88 | 1016.7 |
| 20260510101503 | 10 | 265 | 3.2 | 4.8 | 0.00 | 0.00 | 0.00 | 88 | 1016.7 |
| 20260510101003 | 10 | 266 | 3.2 | 4.8 | 0.00 | 0.00 | 0.00 | 87 | 1016.6 |
| 20260510100503 | 10 | 266 | 1.6 | 4.8 | 0.00 | 0.00 | 0.00 | 87 | 1016.6 |
| 20260510100003 | 10 | 266 | 1.6 | 11.3 | 0.00 | 0.00 | 0.00 | 87 | 1016.6 |
| 20260510095503 | 11 | 267 | 1.6 | 11.3 | 0.00 | 0.00 | 0.00 | 87 | 1016.6 |
| 20260510095002 | 11 | 270 | 8.0 | 11.3 | 0.00 | 0.00 | 0.00 | 86 | 1016.6 |
| 20260510094503 | 11 | 270 | 1.6 | 8.0 | 0.00 | 0.00 | 0.00 | 86 | 1016.7 |
| 20260510094003 | 11 | 270 | 4.8 | 8.0 | 0.00 | 0.00 | 0.00 | 86 | 1016.6 |
| 20260510093502 | 11 | 270 | 3.2 | 4.8 | 0.00 | 0.00 | 0.00 | 86 | 1016.5 |
| 20260510093004 | 11 | 270 | 3.2 | 8.0 | 0.00 | 0.00 | 0.00 | 86 | 1016.5 |
| 20260510092502 | 11 | 270 | 0.0 | 8.0 | 0.00 | 0.00 | 0.00 | 86 | 1016.4 |
| 20260510092002 | 10 | 270 | 3.2 | 8.0 | 0.00 | 0.00 | 0.00 | 88 | 1016.4 |
| 20260510091503 | 10 | 0 | 0.0 | 4.8 | 0.00 | 0.00 | 0.00 | 89 | 1016.3 |
| 20260510091003 | 10 | 267 | 0.0 | 11.3 | 0.00 | 0.00 | 0.00 | 90 | 1016.2 |
| 20260510090502 | 10 | 278 | 0.0 | 16.1 | 0.00 | 0.00 | 0.00 | 93 | 1016.2 |
| 20260510090003 | 10 | 270 | 8.0 | 16.1 | 0.00 | 0.00 | 0.00 | 96 | 1016.1 |
| 20260510085503 | 8 | 236 | 1.6 | 8.0 | 0.00 | 0.00 | 0.00 | 99 | 1016.0 |
| 20260510084503 | 7 | 220 | 1.6 | 8.0 | 0.00 | 0.00 | 0.00 | 100 | 1016.0 |
| 20260510084003 | 6 | 32 | 1.6 | 8.0 | 0.00 | 0.00 | 0.00 | 100 | 1015.9 |
| 20260510083503 | 6 | 271 | 1.6 | 3.2 | 0.00 | 0.00 | 0.00 | 96 | 1016.0 |
| 20260510083003 | 6 | 200 | 1.6 | 4.8 | 0.00 | 0.00 | 0.00 | 95 | 1015.9 |
| 20260510082503 | 6 | 200 | 0.0 | 4.8 | 0.00 | 0.00 | 0.00 | 100 | 1016.0 |
| 20260510082002 | 6 | 200 | 1.6 | 3.2 | 0.00 | 0.00 | 0.00 | 97 | 1016.0 |
| 20260510081503 | 6 | 200 | 0.0 | 3.2 | 0.00 | 0.00 | 0.00 | 97 | 1016.0 |
| 20260510081003 | 5 | 200 | 0.0 | 3.2 | 0.00 | 0.00 | 0.00 | 100 | 1015.9 |
| 20260510080504 | 4 | 200 | 1.6 | 3.2 | 0.00 | 0.00 | 0.00 | 96 | 1015.9 |
| 20260510080004 | 4 | 0 | 0.0 | 1.6 | 0.00 | 0.00 | 0.00 | 95 | 1015.8 |
| 20260510075003 | 4 | 200 | 0.0 | 3.2 | 0.00 | 0.00 | 0.00 | 95 | 1015.6 |
| 20260510074503 | 3 | 0 | 0.0 | 3.2 | 0.00 | 0.00 | 0.00 | 95 | 1015.5 |
| 20260510074003 | 3 | 0 | 0.0 | 3.2 | 0.00 | 0.00 | 0.00 | 94 | 1015.5 |
| 20260510072502 | 5 | 0 | 0.0 | 1.6 | 0.00 | 0.00 | 0.00 | 95 | 1015.6 |
| 20260510071002 | 4 | 0 | 0.0 | 3.2 | 0.00 | 0.00 | 0.00 | 94 | 1015.5 |
| 20260510070503 | 4 | 201 | 0.0 | 4.8 | 0.00 | 0.00 | 0.00 | 93 | 1015.5 |
| 20260510070003 | 4 | 201 | 3.2 | 8.0 | 0.00 | 0.00 | 0.00 | 93 | 1015.5 |
| 20260510065502 | 4 | 0 | 0.0 | 8.0 | 0.00 | 0.00 | 0.00 | 92 | 1015.4 |
| 20260510065003 | 5 | 200 | 3.2 | 9.7 | 0.00 | 0.00 | 0.00 | 92 | 1015.4 |
| 20260510064504 | 5 | 198 | 1.6 | 9.7 | 0.00 | 0.00 | 0.00 | 95 | 1015.4 |
| 20260510064003 | 5 | 213 | 6.4 | 9.7 | 0.00 | 0.00 | 0.00 | 93 | 1015.4 |
| 20260510063503 | 5 | 213 | 0.0 | 3.2 | 0.00 | 0.00 | 0.00 | 93 | 1015.4 |
| 20260510063003 | 5 | 0 | 0.0 | 3.2 | 0.00 | 0.00 | 0.00 | 93 | 1015.4 |
| 20260510062505 | 5 | 214 | 1.6 | 3.2 | 0.00 | 0.00 | 0.00 | 94 | 1015.4 |
| 20260510062003 | 5 | 0 | 0.0 | 1.6 | 0.00 | 0.00 | 0.00 | 92 | 1015.5 |
| 20260510061503 | 5 | 0 | 0.0 | 0.0 | 0.00 | 0.00 | 0.00 | 92 | 1015.6 |
| 20260510061003 | 5 | 0 | 0.0 | 0.0 | 0.00 | 0.00 | 0.00 | 94 | 1015.7 |
| 20260510060502 | 5 | 0 | 0.0 | 0.0 | 0.00 | 0.00 | 0.00 | 94 | 1015.7 |
| 20260510060003 | 5 | 0 | 0.0 | 3.2 | 0.00 | 0.00 | 0.00 | 93 | 1015.6 |
| 20260510055503 | 5 | 0 | 0.0 | 3.2 | 0.00 | 0.00 | 0.00 | 92 | 1015.6 |
| 20260510055003 | 5 | 214 | 3.2 | 3.2 | 0.00 | 0.00 | 0.00 | 90 | 1015.6 |
| 20260510054504 | 5 | 214 | 1.6 | 3.2 | 0.00 | 0.00 | 0.00 | 91 | 1015.6 |
| 20260510054004 | 6 | 0 | 0.0 | 4.8 | 0.00 | 0.00 | 0.00 | 91 | 1015.6 |
| 20260510053504 | 6 | 214 | 3.2 | 4.8 | 0.00 | 0.00 | 0.00 | 92 | 1015.7 |
| 20260510053003 | 6 | 214 | 1.6 | 4.8 | 0.00 | 0.00 | 0.00 | 91 | 1015.6 |
| 20260510052503 | 6 | 214 | 1.6 | 3.2 | 0.00 | 0.00 | 0.00 | 91 | 1015.6 |
| 20260510052003 | 6 | 213 | 0.0 | 3.2 | 0.00 | 0.00 | 0.00 | 89 | 1015.6 |
| 20260510051503 | 6 | 0 | 0.0 | 0.0 | 0.00 | 0.00 | 0.00 | 91 | 1015.6 |
| 20260510051003 | 7 | 0 | 0.0 | 1.6 | 0.00 | 0.00 | 0.00 | 91 | 1015.7 |
| 20260510050503 | 7 | 0 | 0.0 | 4.8 | 0.00 | 0.00 | 0.00 | 91 | 1015.8 |
| 20260510050004 | 7 | 214 | 3.2 | 4.8 | 0.00 | 0.00 | 0.00 | 91 | 1015.7 |
| 20260510045503 | 7 | 193 | 0.0 | 1.6 | 0.00 | 0.00 | 0.00 | 90 | 1015.7 |
| 20260510045002 | 7 | 0 | 0.0 | 1.6 | 0.00 | 0.00 | 0.00 | 90 | 1015.6 |
| 20260510044003 | 7 | 0 | 0.0 | 1.6 | 0.00 | 0.00 | 0.00 | 88 | 1015.7 |
| 20260510043503 | 7 | 0 | 0.0 | 1.6 | 0.00 | 0.00 | 0.00 | 87 | 1015.6 |
| 20260510043004 | 8 | 0 | 0.0 | 1.6 | 0.00 | 0.00 | 0.00 | 88 | 1015.6 |
| 20260510042003 | 8 | 0 | 0.0 | 3.2 | 0.00 | 0.00 | 0.00 | 88 | 1015.6 |
| 20260510041504 | 8 | 0 | 0.0 | 4.8 | 0.00 | 0.00 | 0.00 | 87 | 1015.7 |
| 20260510041002 | 8 | 202 | 4.8 | 4.8 | 0.00 | 0.00 | 0.00 | 86 | 1015.6 |
| 20260510040503 | 9 | 203 | 3.2 | 4.8 | 0.00 | 0.00 | 0.00 | 84 | 1015.6 |
| 20260510040008 | 9 | 203 | 1.6 | 4.8 | 0.00 | 0.00 | 0.00 | 84 | 1015.6 |
| 20260510035503 | 10 | 203 | 1.6 | 4.8 | 0.00 | 0.00 | 0.00 | 84 | 1015.6 |
| 20260510035003 | 10 | 203 | 3.2 | 4.8 | 0.00 | 0.00 | 0.00 | 83 | 1015.6 |
| 20260510034503 | 10 | 203 | 3.2 | 4.8 | 0.00 | 0.00 | 0.00 | 80 | 1015.6 |
| 20260510034003 | 11 | 0 | 0.0 | 8.0 | 0.00 | 0.00 | 0.00 | 80 | 1015.6 |
| 20260510033503 | 11 | 204 | 4.8 | 8.0 | 0.00 | 0.00 | 0.00 | 82 | 1015.5 |
| 20260510032503 | 10 | 209 | 3.2 | 3.2 | 0.00 | 0.00 | 0.00 | 83 | 1015.4 |
| 20260510032003 | 10 | 209 | 3.2 | 3.2 | 0.00 | 0.00 | 0.00 | 84 | 1015.3 |
| 20260510031504 | 10 | 208 | 0.0 | 3.2 | 0.00 | 0.00 | 0.00 | 85 | 1015.3 |
| 20260510030502 | 9 | 0 | 0.0 | 3.2 | 0.00 | 0.00 | 0.00 | 85 | 1015.2 |
| 20260510030003 | 9 | 208 | 0.0 | 4.8 | 0.00 | 0.00 | 0.00 | 86 | 1015.1 |
| 20260510025503 | 9 | 209 | 3.2 | 8.0 | 0.00 | 0.00 | 0.00 | 86 | 1015.2 |
| 20260510024505 | 9 | 299 | 0.0 | 3.2 | 0.00 | 0.00 | 0.00 | 86 | 1015.2 |
| 20260510024003 | 9 | 299 | 1.6 | 3.2 | 0.00 | 0.00 | 0.00 | 88 | 1015.1 |
| 20260510023503 | 8 | 299 | 0.0 | 3.2 | 0.00 | 0.00 | 0.00 | 88 | 1015.1 |
| 20260510022503 | 8 | 0 | 0.0 | 1.6 | 0.00 | 0.00 | 0.00 | 86 | 1015.0 |
| 20260510022003 | 9 | 0 | 0.0 | 0.0 | 0.00 | 0.00 | 0.00 | 86 | 1015.1 |
| 20260510021503 | 9 | 0 | 0.0 | 0.0 | 0.00 | 0.00 | 0.00 | 85 | 1015.0 |
| 20260510021003 | 10 | 0 | 0.0 | 3.2 | 0.00 | 0.00 | 0.00 | 84 | 1014.9 |
| 20260510020503 | 10 | 299 | 0.0 | 3.2 | 0.00 | 0.00 | 0.00 | 84 | 1015.0 |
| 20260510020004 | 10 | 0 | 0.0 | 0.0 | 0.00 | 0.00 | 0.00 | 84 | 1014.9 |
| 20260510015503 | 10 | 0 | 0.0 | 0.0 | 0.00 | 0.00 | 0.00 | 85 | 1014.8 |
| 20260510015002 | 10 | 0 | 0.0 | 3.2 | 0.00 | 0.00 | 0.00 | 84 | 1014.7 |
| 20260510014503 | 10 | 299 | 0.0 | 3.2 | 0.00 | 0.00 | 0.00 | 82 | 1014.8 |
| 20260510013004 | 11 | 0 | 0.0 | 0.0 | 0.00 | 0.00 | 0.00 | 79 | 1014.4 |
| 20260510012503 | 11 | 0 | 0.0 | 0.0 | 0.00 | 0.00 | 0.00 | 79 | 1014.3 |
| 20260510012002 | 12 | 0 | 0.0 | 3.2 | 0.00 | 0.00 | 0.00 | 78 | 1014.2 |
| 20260510011503 | 12 | 0 | 0.0 | 3.2 | 0.00 | 0.00 | 0.00 | 77 | 1014.1 |
| 20260510010503 | 13 | 300 | 3.2 | 3.2 | 0.00 | 0.00 | 0.00 | 73 | 1014.1 |
| 20260510010003 | 13 | 0 | 0.0 | 0.0 | 0.00 | 0.00 | 0.00 | 71 | 1013.9 |
| 20260510005003 | 15 | 0 | 0.0 | 3.2 | 0.00 | 0.00 | 0.00 | 69 | 1014.0 |
| 20260510004504 | 15 | 0 | 0.0 | 3.2 | 0.00 | 0.00 | 0.00 | 67 | 1013.9 |
| 20260510004003 | 15 | 300 | 1.6 | 3.2 | 0.00 | 0.00 | 0.00 | 66 | 1013.8 |
| 20260510003502 | 15 | 299 | 0.0 | 1.6 | 0.00 | 0.00 | 0.00 | 65 | 1013.7 |
| 20260510003004 | 16 | 0 | 0.0 | 3.2 | 0.00 | 0.00 | 0.00 | 63 | 1013.8 |
| 20260510002503 | 16 | 317 | 0.0 | 3.2 | 0.00 | 0.00 | 0.00 | 61 | 1013.8 |
| 20260510002003 | 16 | 0 | 0.0 | 4.8 | 0.00 | 0.00 | 0.00 | 61 | 1013.7 |
| 20260510001003 | 17 | 314 | 0.0 | 8.0 | 0.00 | 0.00 | 0.00 | 60 | 1013.7 |
| 20260510000503 | 17 | 314 | 3.2 | 14.5 | 0.00 | 0.00 | 0.00 | 58 | 1013.6 |
| 20260510000004 | 17 | 314 | 4.8 | 14.5 | 0.00 | 0.00 | 0.00 | 57 | 1013.6 |
| 20260509235503 | 17 | 335 | 4.8 | 16.1 | 0.00 | 0.00 | 0.00 | 56 | 1013.5 |
| 20260509235003 | 18 | 322 | 9.7 | 16.1 | 0.00 | 0.00 | 0.00 | 55 | 1013.4 |
| 20260509234503 | 18 | 314 | 6.4 | 20.9 | 0.00 | 0.00 | 0.00 | 55 | 1013.3 |
| 20260509233503 | 18 | 279 | 3.2 | 22.5 | 0.00 | 0.00 | 0.00 | 55 | 1013.2 |
| 20260509233003 | 18 | 329 | 11.3 | 22.5 | 0.00 | 0.00 | 0.00 | 53 | 1013.1 |
| 20260509232503 | 18 | 311 | 9.7 | 22.5 | 0.00 | 0.00 | 0.00 | 53 | 1013.1 |
| 20260509232003 | 19 | 310 | 8.0 | 20.9 | 0.00 | 0.00 | 0.00 | 52 | 1013.1 |
| 20260509231503 | 19 | 310 | 4.8 | 20.9 | 0.00 | 0.00 | 0.00 | 52 | 1013.1 |
| 20260509231002 | 19 | 315 | 8.0 | 16.1 | 0.00 | 0.00 | 0.00 | 53 | 1013.0 |
| 20260509230503 | 19 | 304 | 6.4 | 19.3 | 0.00 | 0.00 | 0.00 | 54 | 1012.9 |
| 20260509230004 | 20 | 272 | 14.5 | 22.5 | 0.00 | 0.00 | 0.00 | 51 | 1012.8 |
| 20260509225003 | 20 | 266 | 9.7 | 27.4 | 0.00 | 0.00 | 0.00 | 52 | 1012.8 |
| 20260509224504 | 20 | 261 | 16.1 | 27.4 | 0.00 | 0.00 | 0.00 | 51 | 1012.8 |
| 20260509224003 | 20 | 326 | 14.5 | 24.1 | 0.00 | 0.00 | 0.00 | 52 | 1012.9 |
| 20260509222503 | 18 | 276 | 11.3 | 22.5 | 0.00 | 0.00 | 0.00 | 52 | 1012.9 |
| 20260509222002 | 19 | 296 | 14.5 | 22.5 | 0.00 | 0.00 | 0.00 | 51 | 1012.9 |
| 20260509221503 | 20 | 297 | 8.0 | 19.3 | 0.00 | 0.00 | 0.00 | 52 | 1012.8 |
| 20260509221002 | 20 | 276 | 6.4 | 20.9 | 0.00 | 0.00 | 0.00 | 51 | 1012.9 |
| 20260509220503 | 20 | 298 | 6.4 | 24.1 | 0.00 | 0.00 | 0.00 | 53 | 1012.8 |
| 20260509220004 | 20 | 332 | 12.9 | 24.1 | 0.00 | 0.00 | 0.00 | 52 | 1012.7 |
| 20260509215503 | 20 | 247 | 11.3 | 19.3 | 0.00 | 0.00 | 0.00 | 52 | 1012.7 |
| 20260509215002 | 20 | 278 | 9.7 | 19.3 | 0.00 | 0.00 | 0.00 | 53 | 1012.6 |
| 20260509214504 | 20 | 244 | 12.9 | 19.3 | 0.00 | 0.00 | 0.00 | 54 | 1012.6 |
| 20260509214003 | 20 | 286 | 12.9 | 19.3 | 0.00 | 0.00 | 0.00 | 53 | 1012.6 |
| 20260509213503 | 20 | 250 | 8.0 | 19.3 | 0.00 | 0.00 | 0.00 | 53 | 1012.6 |
| 20260509213004 | 19 | 255 | 9.7 | 20.9 | 0.00 | 0.00 | 0.00 | 56 | 1012.6 |
| 20260509212502 | 19 | 240 | 12.9 | 25.7 | 0.00 | 0.00 | 0.00 | 53 | 1012.5 |
| 20260509212003 | 19 | 225 | 12.9 | 25.7 | 0.00 | 0.00 | 0.00 | 53 | 1012.5 |
| 20260509211503 | 19 | 293 | 4.8 | 24.1 | 0.00 | 0.00 | 0.00 | 55 | 1012.4 |
| 20260509211003 | 19 | 301 | 9.7 | 24.1 | 0.00 | 0.00 | 0.00 | 52 | 1012.4 |
| 20260509210503 | 19 | 274 | 8.0 | 19.3 | 0.00 | 0.00 | 0.00 | 51 | 1012.4 |
| 20260509205504 | 20 | 220 | 9.7 | 25.7 | 0.00 | 0.00 | 0.00 | 52 | 1012.4 |
| 20260509205003 | 20 | 284 | 16.1 | 29.0 | 0.00 | 0.00 | 0.00 | 50 | 1012.4 |
| 20260509204504 | 19 | 263 | 17.7 | 29.0 | 0.00 | 0.00 | 0.00 | 49 | 1012.3 |
| 20260509204002 | 19 | 265 | 17.7 | 32.2 | 0.00 | 0.00 | 0.00 | 49 | 1012.3 |
| 20260509203503 | 19 | 230 | 19.3 | 35.4 | 0.00 | 0.00 | 0.00 | 50 | 1012.3 |
| 20260509203004 | 19 | 249 | 22.5 | 35.4 | 0.00 | 0.00 | 0.00 | 49 | 1012.3 |
| 20260509202503 | 20 | 168 | 20.9 | 35.4 | 0.00 | 0.00 | 0.00 | 48 | 1012.3 |
| 20260509202003 | 20 | 253 | 14.5 | 29.0 | 0.00 | 0.00 | 0.00 | 47 | 1012.4 |
| 20260509201003 | 20 | 227 | 9.7 | 32.2 | 0.00 | 0.00 | 0.00 | 50 | 1012.1 |
| 20260509200503 | 20 | 207 | 12.9 | 41.8 | 0.00 | 0.00 | 0.00 | 50 | 1012.2 |
| 20260509200004 | 20 | 174 | 22.5 | 41.8 | 0.00 | 0.00 | 0.00 | 50 | 1012.2 |
| 20260509195502 | 20 | 224 | 16.1 | 41.8 | 0.00 | 0.00 | 0.00 | 53 | 1012.2 |
| 20260509195003 | 20 | 258 | 11.3 | 29.0 | 0.00 | 0.00 | 0.00 | 53 | 1012.1 |
| 20260509194503 | 19 | 201 | 9.7 | 25.7 | 0.00 | 0.00 | 0.00 | 51 | 1012.1 |
| 20260509193503 | 20 | 230 | 12.9 | 27.4 | 0.00 | 0.00 | 0.00 | 51 | 1012.1 |
| 20260509193004 | 20 | 269 | 11.3 | 24.1 | 0.00 | 0.00 | 0.00 | 54 | 1012.1 |
| 20260509192003 | 20 | 170 | 9.7 | 29.0 | 0.00 | 0.00 | 0.00 | 53 | 1012.2 |
| 20260509191504 | 20 | 248 | 19.3 | 29.0 | 0.00 | 0.00 | 0.00 | 53 | 1012.3 |
| 20260509191003 | 20 | 262 | 9.7 | 25.7 | 0.00 | 0.00 | 0.00 | 56 | 1012.2 |
| 20260509190503 | 20 | 313 | 4.8 | 25.7 | 0.00 | 0.00 | 0.00 | 57 | 1012.3 |
| 20260509190004 | 20 | 244 | 11.3 | 20.9 | 0.00 | 0.00 | 0.00 | 54 | 1012.4 |
| 20260509185503 | 20 | 277 | 9.7 | 20.9 | 0.00 | 0.00 | 0.00 | 58 | 1012.4 |
| 20260509184504 | 20 | 288 | 14.5 | 22.5 | 0.00 | 0.00 | 0.00 | 57 | 1012.5 |
| 20260509184003 | 20 | 262 | 11.3 | 22.5 | 0.00 | 0.00 | 0.00 | 56 | 1012.4 |
| 20260509183504 | 19 | 283 | 12.9 | 27.4 | 0.00 | 0.00 | 0.00 | 59 | 1012.4 |
| 20260509183004 | 19 | 244 | 11.3 | 27.4 | 0.00 | 0.00 | 0.00 | 57 | 1012.6 |
| 20260509182503 | 19 | 288 | 11.3 | 24.1 | 0.00 | 0.00 | 0.00 | 58 | 1012.4 |
| 20260509182003 | 18 | 323 | 6.4 | 22.5 | 0.00 | 0.00 | 0.00 | 59 | 1012.4 |
| 20260509181504 | 18 | 313 | 11.3 | 22.5 | 0.00 | 0.00 | 0.00 | 55 | 1012.5 |
| 20260509180503 | 19 | 251 | 20.9 | 27.4 | 0.00 | 0.00 | 0.00 | 55 | 1012.6 |
| 20260509180004 | 19 | 226 | 11.3 | 22.5 | 0.00 | 0.00 | 0.00 | 55 | 1012.6 |
| 20260509175503 | 19 | 202 | 9.7 | 20.9 | 0.00 | 0.00 | 0.00 | 56 | 1012.7 |
| 20260509175003 | 18 | 339 | 8.0 | 22.5 | 0.00 | 0.00 | 0.00 | 59 | 1012.8 |
| 20260509174503 | 18 | 303 | 4.8 | 22.5 | 0.00 | 0.00 | 0.00 | 58 | 1012.9 |
| 20260509174004 | 18 | 250 | 16.1 | 33.8 | 0.00 | 0.00 | 0.00 | 62 | 1013.1 |
| 20260509173503 | 17 | 298 | 9.7 | 33.8 | 0.00 | 0.00 | 0.00 | 57 | 1012.9 |
| 20260509173003 | 18 | 297 | 11.3 | 19.3 | 0.00 | 0.00 | 0.00 | 62 | 1012.9 |
| 20260509172504 | 18 | 237 | 14.5 | 20.9 | 0.00 | 0.00 | 0.00 | 59 | 1012.9 |
| 20260509172003 | 18 | 287 | 6.4 | 20.9 | 0.00 | 0.00 | 0.00 | 59 | 1012.9 |
| 20260509171003 | 17 | 230 | 6.4 | 22.5 | 0.00 | 0.00 | 0.00 | 59 | 1013.0 |
| 20260509170504 | 17 | 328 | 14.5 | 22.5 | 0.00 | 0.00 | 0.00 | 60 | 1013.2 |
| 20260509165503 | 17 | 297 | 11.3 | 25.7 | 0.00 | 0.00 | 0.00 | 57 | 1013.4 |
| 20260509165003 | 17 | 283 | 9.7 | 24.1 | 0.00 | 0.00 | 0.00 | 60 | 1013.3 |
| 20260509164503 | 17 | 292 | 6.4 | 19.3 | 0.00 | 0.00 | 0.00 | 61 | 1013.2 |
| 20260509163503 | 18 | 212 | 8.0 | 22.5 | 0.00 | 0.00 | 0.00 | 64 | 1013.4 |
| 20260509163004 | 18 | 269 | 12.9 | 20.9 | 0.00 | 0.00 | 0.00 | 64 | 1013.4 |